EW2561 Weather Reports


Display with metric or nautical units.
time (UTC)temp
F
wind
direction
speed
MPH
gust
MPH
rain 1hr
in
rain 24hr
in
rain mn
in
humidity
%
barometer
mb
20260506194226 48 0 1.0 3.0 0.00 0.60 0.50 95 1007.9
20260506193704 48 3 1.0 3.0 0.00 0.61 0.50 95 1007.9
20260506193203 48 44 1.0 2.0 0.00 0.61 0.50 95 1007.8
20260506192647 48 1 1.0 4.0 0.00 0.61 0.50 95 1007.7
20260506192133 48 2 1.0 4.0 0.00 0.61 0.50 95 1007.7
20260506191632 48 41 1.0 4.0 0.00 0.61 0.50 95 1007.6
20260506191130 48 51 2.0 4.0 0.00 0.61 0.50 94 1007.6
20260506190632 48 7 2.0 3.0 0.00 0.62 0.50 94 1007.6
20260506190326 48 57 1.0 4.0 0.00 0.62 0.50 94 1007.6
20260506190039 48 6 1.0 3.0 0.00 0.62 0.50 94 1007.5
20260506190030 48 359 1.0 4.0 0.00 0.62 0.50 94 1007.5
20260506184538 48 20 1.0 3.0 0.00 0.62 0.50 94 1007.4
20260506184251 48 7 1.0 6.0 0.00 0.62 0.50 94 1007.4
20260506183531 49 1 1.0 6.0 0.00 0.62 0.50 93 1007.4
20260506183027 49 23 1.0 3.0 0.00 0.62 0.50 93 1007.3
20260506182507 49 15 1.0 3.0 0.00 0.62 0.50 93 1007.2
20260506182008 49 22 1.0 4.0 0.00 0.62 0.50 93 1007.1
20260506181437 49 8 1.0 4.0 0.00 0.62 0.50 93 1007.1
20260506180935 49 333 1.0 4.0 0.00 0.62 0.50 93 1007.1
20260506180432 49 22 1.0 4.0 0.00 0.62 0.50 93 1007.0
20260506175930 49 343 1.0 3.0 0.00 0.62 0.50 93 1006.9
20260506175430 49 34 1.0 3.0 0.00 0.62 0.50 93 1006.9
20260506174932 49 63 2.0 6.0 0.00 0.62 0.50 93 1006.9
20260506174430 49 6 2.0 6.0 0.00 0.62 0.50 92 1006.8
20260506173930 49 1 2.0 6.0 0.00 0.62 0.50 92 1006.7
20260506173655 49 1 2.0 5.0 0.00 0.62 0.50 92 1006.7
20260506173156 49 65 2.0 5.0 0.00 0.62 0.50 92 1006.6
20260506172425 49 354 1.0 5.0 0.00 0.62 0.50 92 1006.5
20260506171905 49 141 1.0 4.0 0.00 0.62 0.50 92 1006.5
20260506171402 50 23 1.0 4.0 0.00 0.62 0.50 91 1006.4
20260506170902 50 37 1.0 3.0 0.00 0.62 0.50 92 1006.4
20260506170331 50 72 0.0 3.0 0.00 0.62 0.50 92 1006.4
20260506165830 50 8 0.0 2.0 0.00 0.62 0.50 91 1006.4
20260506165557 50 345 0.0 2.0 0.00 0.62 0.50 91 1006.4
20260506164805 50 7 1.0 3.0 0.00 0.62 0.50 91 1006.3
20260506164307 50 78 1.0 4.0 0.00 0.62 0.50 91 1006.3
20260506163732 50 1 1.0 4.0 0.00 0.62 0.50 91 1006.3
20260506163231 50 1 2.0 4.0 0.00 0.62 0.50 91 1006.3
20260506162725 50 56 2.0 4.0 0.00 0.62 0.50 91 1006.3
20260506162445 50 347 2.0 6.0 0.00 0.62 0.50 91 1006.2
20260506161927 50 57 2.0 6.0 0.00 0.62 0.50 91 1006.2
20260506161202 50 11 3.0 7.0 0.00 0.62 0.50 91 1006.2
20260506160652 50 1 3.0 7.0 0.00 0.62 0.50 92 1006.1
20260506160132 50 38 2.0 6.0 0.00 0.62 0.50 92 1006.1
20260506155629 49 354 2.0 5.0 0.00 0.62 0.50 92 1006.1
20260506155104 49 15 2.0 5.0 0.00 0.62 0.50 92 1006.1
20260506154603 49 11 3.0 8.0 0.00 0.62 0.50 92 1006.1
20260506154032 49 358 3.0 8.0 0.00 0.62 0.50 92 1006.1
20260506153529 49 357 3.0 6.0 0.00 0.62 0.50 92 1006.1
20260506153032 49 9 2.0 7.0 0.00 0.62 0.50 92 1006.1
20260506152524 49 8 3.0 7.0 0.00 0.62 0.50 93 1006.1
20260506152019 49 13 3.0 7.0 0.00 0.62 0.50 93 1006.1
20260506151504 49 2 2.0 7.0 0.00 0.62 0.50 93 1006.0
20260506150937 49 257 2.0 7.0 0.00 0.62 0.50 93 1006.0
20260506150433 49 2 2.0 7.0 0.00 0.62 0.50 93 1006.0
20260506150202 49 1 1.0 6.0 0.00 0.62 0.50 93 1005.9
20260506145656 49 319 1.0 4.0 0.00 0.62 0.50 93 1005.9
20260506145153 49 13 1.0 6.0 0.00 0.62 0.50 93 1005.9
20260506144432 49 23 2.0 6.0 0.00 0.62 0.50 93 1005.9
20260506143930 49 40 3.0 7.0 0.00 0.62 0.50 93 1005.9
20260506143430 49 359 3.0 7.0 0.00 0.62 0.50 93 1005.9
20260506142930 49 0 2.0 6.0 0.00 0.62 0.50 94 1005.9
20260506142436 49 287 2.0 8.0 0.00 0.62 0.50 94 1005.9
20260506141932 49 21 2.0 6.0 0.00 0.62 0.50 94 1005.9
20260506141433 49 62 2.0 6.0 0.00 0.62 0.50 95 1006.0
20260506141132 49 8 2.0 5.0 0.00 0.62 0.50 95 1006.0
20260506140626 49 10 2.0 5.0 0.00 0.62 0.50 95 1005.9
20260506135902 49 357 2.0 5.0 0.00 0.62 0.50 95 1005.9
20260506135402 49 41 1.0 4.0 0.00 0.62 0.50 95 1005.9
20260506134903 49 0 1.0 2.0 0.00 0.62 0.50 95 1005.9
20260506134332 49 24 1.0 6.0 0.00 0.62 0.50 95 1005.9
20260506133832 49 345 2.0 5.0 0.00 0.62 0.50 95 1005.9
20260506133303 49 5 2.0 6.0 0.01 0.62 0.50 95 1005.9
20260506132802 49 41 2.0 6.0 0.01 0.62 0.50 95 1005.8
20260506132453 49 359 2.0 7.0 0.01 0.62 0.50 95 1005.8
20260506131730 49 0 2.0 7.0 0.01 0.62 0.50 95 1005.8
20260506131452 49 9 2.0 6.0 0.01 0.62 0.50 95 1005.8
20260506130730 49 40 2.0 6.0 0.01 0.62 0.50 95 1005.7
20260506130213 49 25 2.0 5.0 0.02 0.62 0.50 95 1005.6
20260506125703 49 1 2.0 5.0 0.02 0.62 0.50 95 1005.6
20260506125202 49 309 2.0 8.0 0.02 0.62 0.50 95 1005.6
20260506124645 49 16 2.0 8.0 0.02 0.62 0.50 95 1005.5
20260506124359 49 30 2.0 7.0 0.02 0.62 0.50 95 1005.5
20260506123856 49 11 3.0 7.0 0.01 0.61 0.50 95 1005.5
20260506123131 49 8 3.0 7.0 0.01 0.61 0.50 95 1005.5
20260506122630 49 354 3.0 7.0 0.01 0.61 0.50 95 1005.5
20260506122103 49 10 2.0 5.0 0.02 0.61 0.50 95 1005.4
20260506121602 49 297 2.0 9.0 0.02 0.61 0.50 96 1005.4
20260506121032 49 346 3.0 9.0 0.02 0.61 0.50 96 1005.3
20260506120531 49 24 3.0 7.0 0.02 0.61 0.50 95 1005.3
20260506120257 49 3 3.0 8.0 0.02 0.61 0.49 95 1005.3
20260506115529 49 281 2.0 8.0 0.02 0.61 0.49 96 1005.2
20260506115026 49 343 3.0 9.0 0.02 0.61 0.49 96 1005.1
20260506114520 49 1 4.0 9.0 0.02 0.61 0.49 96 1005.1
20260506114226 49 49 4.0 11.0 0.02 0.61 0.49 96 1005.0
20260506113504 49 298 3.0 11.0 0.02 0.61 0.49 96 1005.0
20260506112932 49 0 3.0 7.0 0.03 0.61 0.49 96 1005.0
20260506112430 49 3 3.0 7.0 0.03 0.61 0.49 96 1004.9
20260506112153 49 46 3.0 7.0 0.02 0.60 0.48 96 1004.9
20260506111430 50 340 2.0 7.0 0.03 0.60 0.48 96 1004.9
20260506110931 50 8 2.0 7.0 0.02 0.59 0.47 96 1004.9
20260506110405 50 296 2.0 7.0 0.02 0.59 0.47 96 1004.9
20260506105904 50 32 2.0 5.0 0.02 0.59 0.47 97 1004.8
20260506105332 50 1 2.0 5.0 0.02 0.59 0.47 97 1004.8
20260506104820 50 64 1.0 5.0 0.02 0.58 0.46 97 1004.8
20260506104302 50 288 1.0 4.0 0.02 0.58 0.46 97 1004.8
20260506103802 50 271 1.0 5.0 0.02 0.58 0.46 97 1004.8
20260506103303 50 330 1.0 5.0 0.02 0.57 0.46 97 1004.8
20260506102802 50 248 2.0 7.0 0.03 0.57 0.46 97 1004.7
20260506102305 50 1 2.0 7.0 0.03 0.57 0.46 97 1004.7
20260506101731 50 321 2.0 7.0 0.04 0.57 0.45 97 1004.7
20260506101239 50 1 1.0 7.0 0.03 0.57 0.45 97 1004.7
20260506100736 50 269 1.0 4.0 0.04 0.57 0.45 97 1004.6
20260506100230 50 21 2.0 4.0 0.04 0.57 0.45 97 1004.6
20260506095731 50 12 1.0 5.0 0.04 0.57 0.45 97 1004.5
20260506095709 50 333 1.0 4.0 0.03 0.56 0.44 97 1004.5
20260506094721 50 291 2.0 7.0 0.04 0.56 0.44 97 1004.5
20260506094203 50 286 2.0 7.0 0.04 0.56 0.44 97 1004.5
20260506093702 50 309 2.0 5.0 0.04 0.56 0.43 97 1004.5
20260506093137 50 1 2.0 6.0 0.04 0.55 0.43 97 1004.4
20260506092632 50 2 1.0 6.0 0.03 0.54 0.43 97 1004.3
20260506092124 50 329 1.0 4.0 0.02 0.54 0.42 97 1004.4
20260506091604 49 27 1.0 2.0 0.02 0.54 0.42 97 1004.4
20260506091037 49 52 1.0 5.0 0.03 0.54 0.42 97 1004.4
20260506090754 49 41 2.0 4.0 0.02 0.53 0.41 97 1004.3
20260506090033 49 1 2.0 7.0 0.02 0.53 0.41 97 1004.3
20260506085527 49 0 2.0 6.0 0.02 0.53 0.41 97 1004.2
20260506085022 49 359 2.0 6.0 0.03 0.53 0.41 97 1004.2
20260506084521 49 53 2.0 6.0 0.02 0.52 0.40 97 1004.2
20260506084018 49 353 2.0 6.0 0.02 0.52 0.40 97 1004.1
20260506083511 49 238 2.0 6.0 0.02 0.52 0.39 97 1004.1
20260506083112 49 6 2.0 7.0 0.02 0.50 0.39 97 1003.9
20260506083108 49 6 2.0 7.0 0.02 0.51 0.39 97 1004.0
20260506083101 49 1 1.0 7.0 0.02 0.51 0.39 97 1004.0
20260506082137 49 16 2.0 6.0 0.02 0.51 0.39 97 1003.9
20260506081151 49 51 2.0 6.0 0.02 0.50 0.39 97 1003.8
20260506080432 49 0 2.0 6.0 0.02 0.50 0.39 97 1003.8
20260506073332 49 20 3.0 8.0 0.04 0.50 0.38 97 1003.7
20260506073046 49 1 2.0 7.0 0.05 0.50 0.37 97 1003.6
20260506072320 49 32 2.0 7.0 0.04 0.49 0.37 97 1003.5
20260506072022 49 1 2.0 7.0 0.04 0.49 0.37 97 1003.5
20260506071303 49 37 2.0 6.0 0.04 0.48 0.36 97 1003.5
20260506070731 49 9 2.0 6.0 0.04 0.48 0.36 97 1003.6
20260506070219 49 356 2.0 6.0 0.03 0.47 0.35 97 1003.5
20260506062250 49 352 2.0 6.0 0.03 0.45 0.33 98 1003.3
20260506061532 49 6 2.0 6.0 0.03 0.44 0.32 98 1003.2
20260506061032 49 14 2.0 4.0 0.03 0.44 0.32 98 1003.2
20260506060505 49 352 1.0 4.0 0.03 0.44 0.32 98 1003.2
20260506051403 48 63 1.0 3.0 0.02 0.42 0.29 97 1003.2
20260506050902 48 0 1.0 5.0 0.02 0.42 0.29 97 1003.2
20260506050402 48 332 1.0 5.0 0.03 0.42 0.28 97 1003.2
20260506044830 48 3 0.0 3.0 0.02 0.40 0.28 97 1003.1
20260506044326 48 345 1.0 4.0 0.02 0.40 0.28 97 1003.1
20260506044048 48 359 1.0 4.0 0.02 0.40 0.28 97 1003.1
20260506043323 48 8 1.0 5.0 0.03 0.40 0.28 97 1003.1
20260506042803 48 359 1.0 5.0 0.02 0.39 0.27 97 1003.1
20260506042232 48 25 1.0 5.0 0.03 0.39 0.27 97 1003.1
20260506041730 48 15 2.0 5.0 0.03 0.39 0.27 97 1003.1
20260506041458 48 48 2.0 4.0 0.04 0.39 0.27 97 1003.2
20260506041227 48 37 1.0 4.0 0.03 0.39 0.26 97 1003.2
20260506040230 48 51 1.0 2.0 0.04 0.39 0.26 97 1003.2
20260506035950 48 39 1.0 4.0 0.05 0.39 0.26 97 1003.2
20260506035230 48 359 2.0 2.0 0.05 0.39 0.26 97 1003.3
20260506034948 48 338 1.0 5.0 0.05 0.38 0.25 97 1003.2
20260506034219 48 15 1.0 4.0 0.06 0.38 0.25 97 1003.2
20260506033719 48 15 1.0 4.0 0.06 0.38 0.25 97 1003.3
20260506033432 48 20 1.0 4.0 0.06 0.37 0.24 97 1003.4
20260506032702 48 289 1.0 3.0 0.06 0.37 0.24 97 1003.4
20260506032202 48 19 1.0 4.0 0.06 0.36 0.24 97 1003.4
20260506031703 48 34 2.0 6.0 0.06 0.36 0.24 97 1003.3
20260506031147 48 347 1.0 6.0 0.06 0.35 0.23 97 1003.4
20260506030632 48 36 1.0 5.0 0.06 0.35 0.22 97 1003.4
20260506030130 48 13 2.0 5.0 0.06 0.35 0.22 97 1003.5
20260506025631 48 49 2.0 5.0 0.06 0.34 0.21 97 1003.6
20260506025105 48 7 2.0 6.0 0.06 0.34 0.21 97 1003.5
20260506024603 49 46 2.0 6.0 0.06 0.33 0.20 97 1003.6
20260506024032 49 0 2.0 5.0 0.05 0.32 0.20 97 1003.6
20260506023532 49 34 1.0 5.0 0.06 0.32 0.19 97 1003.6
20260506023030 49 21 1.0 3.0 0.05 0.31 0.19 97 1003.7
20260506022752 49 0 1.0 5.0 0.05 0.31 0.18 97 1003.7
20260506022032 49 1 2.0 5.0 0.05 0.31 0.18 97 1003.7
20260506021529 49 8 2.0 5.0 0.06 0.31 0.18 97 1003.7
20260506021031 49 158 1.0 5.0 0.05 0.30 0.17 97 1003.7
20260506020531 49 337 2.0 5.0 0.05 0.29 0.17 97 1003.7
20260506020005 49 323 2.0 4.0 0.05 0.29 0.17 97 1003.7
20260506015433 49 359 2.0 6.0 0.04 0.28 0.16 97 1003.7
20260506015416 49 340 2.0 5.0 0.04 0.28 0.15 97 1003.8
20260506014403 49 22 2.0 5.0 0.04 0.28 0.15 97 1003.7
20260506013902 49 359 1.0 5.0 0.04 0.28 0.14 97 1003.8
20260506013408 49 13 2.0 5.0 0.04 0.27 0.14 97 1003.8
20260506012903 49 356 2.0 5.0 0.03 0.26 0.13 97 1003.8
20260506012402 49 1 2.0 5.0 0.04 0.26 0.13 97 1003.8
20260506011831 49 326 2.0 4.0 0.04 0.26 0.13 97 1003.9
20260506011332 49 359 2.0 5.0 0.04 0.25 0.13 97 1003.9
20260506010831 49 19 2.0 5.0 0.05 0.25 0.13 97 1003.9
20260506010332 49 1 3.0 6.0 0.04 0.24 0.12 97 1003.9
20260506010248 49 58 2.0 6.0 0.05 0.24 0.12 97 1004.0
20260506005305 49 0 2.0 6.0 0.05 0.24 0.11 97 1004.0
20260506004802 49 20 2.0 6.0 0.04 0.24 0.11 97 1004.0
20260506004302 49 15 2.0 6.0 0.04 0.24 0.11 97 1004.0
20260506003804 49 345 2.0 5.0 0.04 0.23 0.10 97 1004.1
20260506003232 49 8 1.0 5.0 0.04 0.23 0.10 97 1004.1
20260506002727 49 1 2.0 5.0 0.04 0.23 0.09 97 1004.2
20260506002204 49 330 2.0 6.0 0.04 0.22 0.09 97 1004.3
20260506001642 49 19 2.0 6.0 0.03 0.21 0.09 97 1004.3
20260506001142 49 60 2.0 5.0 0.03 0.21 0.08 97 1004.4
20260506000634 50 356 2.0 5.0 0.03 0.20 0.08 97 1004.4
20260506000131 50 58 2.0 5.0 0.03 0.20 0.07 97 1004.5
20260505235602 50 8 2.0 6.0 0.03 0.20 0.07 97 1004.5
20260505235102 50 20 2.0 6.0 0.03 0.20 0.07 97 1004.5
20260505234603 50 30 2.0 6.0 0.04 0.20 0.07 97 1004.5
20260505234102 50 9 1.0 6.0 0.04 0.20 0.06 97 1004.6
20260505233602 50 359 1.0 5.0 0.04 0.19 0.06 97 1004.6
20260505233102 50 37 1.0 5.0 0.04 0.19 0.06 97 1004.6
20260505232604 50 35 2.0 7.0 0.04 0.18 0.06 97 1004.6
20260505232032 50 13 2.0 7.0 0.04 0.18 0.06 97 1004.7
20260505231532 50 30 2.0 9.0 0.05 0.18 0.06 97 1004.7
20260505231259 50 20 2.0 9.0 0.05 0.18 0.06 97 1004.7
20260505230530 50 348 1.0 5.0 0.05 0.17 0.05 97 1004.7
20260505230032 50 1 2.0 5.0 0.05 0.17 0.04 97 1004.7
20260505225754 50 126 2.0 5.0 0.04 0.17 0.04 97 1004.7
20260505225031 50 6 1.0 5.0 0.05 0.17 0.04 97 1004.8
20260505224503 50 347 2.0 5.0 0.04 0.16 0.03 97 1004.8
20260505224002 51 2 2.0 5.0 0.05 0.16 0.02 97 1004.7
20260505223430 51 43 1.0 2.0 0.04 0.15 0.02 97 1004.7
20260505222929 51 359 2.0 6.0 0.05 0.15 0.02 97 1004.8
20260505222422 51 55 3.0 6.0 0.04 0.14 0.02 97 1004.8
20260505221915 51 44 2.0 5.0 0.04 0.13 0.01 97 1004.8
20260505221404 51 91 1.0 5.0 0.05 0.13 0.01 97 1004.9
20260505220832 51 352 1.0 5.0 0.05 0.13 0.00 97 1004.8
20260505220328 51 0 1.0 5.0 0.05 0.13 0.00 97 1004.9
20260505215802 51 0 1.0 5.0 0.05 0.13 0.13 96 1004.9
20260505215305 51 1 1.0 4.0 0.05 0.12 0.12 96 1004.9
20260505214804 51 97 1.0 4.0 0.05 0.12 0.12 96 1004.9
20260505214303 50 0 1.0 4.0 0.06 0.12 0.11 96 1005.0
20260505213803 51 77 1.0 4.0 0.06 0.11 0.11 96 1005.0
20260505213525 51 344 1.0 6.0 0.06 0.11 0.11 96 1005.0
20260505212813 50 18 1.0 6.0 0.06 0.10 0.10 96 1005.0
20260505212238 51 357 1.0 4.0 0.05 0.09 0.09 96 1005.1
20260505211737 51 19 1.0 6.0 0.06 0.09 0.09 96 1005.1
20260505211207 51 1 1.0 6.0 0.05 0.09 0.09 96 1005.1
20260505210926 51 13 1.0 6.0 0.05 0.09 0.09 96 1005.2
20260505210203 51 342 1.0 6.0 0.05 0.08 0.08 96 1005.2
20260505205702 51 359 1.0 5.0 0.05 0.08 0.08 96 1005.2
20260505205208 51 102 1.0 5.0 0.04 0.07 0.07 96 1005.3
20260505204928 51 1 1.0 3.0 0.03 0.06 0.06 96 1005.3
20260505204204 51 359 1.0 5.0 0.03 0.06 0.06 96 1005.3
20260505203633 51 41 1.0 3.0 0.03 0.06 0.06 96 1005.3
20260505203131 51 354 1.0 6.0 0.03 0.06 0.05 96 1005.3
20260505202630 51 1 2.0 4.0 0.03 0.05 0.05 96 1005.3
20260505202131 51 72 2.0 8.0 0.02 0.04 0.04 96 1005.3
20260505201603 51 116 1.0 8.0 0.02 0.04 0.04 96 1005.3
20260505201030 51 83 1.0 3.0 0.02 0.04 0.04 96 1005.2
20260505200531 51 66 1.0 4.0 0.03 0.04 0.04 96 1005.2
20260505200004 51 350 1.0 3.0 0.02 0.03 0.03 96 1005.2
20260505195504 51 342 1.0 4.0 0.02 0.03 0.03 96 1005.2
20260505195002 51 349 1.0 4.0 0.02 0.03 0.03 96 1005.2